EW5826 Weather Reports


time (UTC)temp
C
wind
direction
speed
KPH
gust
KPH
rain 1hr
cm
rain 24hr
cm
rain mn
cm
humidity
%
barometer
mb
20260903011519 28 180 3.2 9.7 0.00 0.00 0.00 78 1016.1
20260903010519 28 158 4.8 11.3 0.00 0.00 0.00 77 1016.0
20260903005519 28 180 3.2 8.0 0.00 0.00 0.00 77 1015.9
20260903004559 29 203 3.2 9.7 0.00 0.00 0.00 76 1015.7
20260903003519 29 180 3.2 9.7 0.00 0.00 0.00 75 1015.8
20260903002518 29 158 3.2 9.7 0.00 0.00 0.00 73 1015.6
20260903001518 30 225 1.6 6.4 0.00 0.00 0.00 72 1015.7
20260903000522 30 203 3.2 8.0 0.00 0.00 0.00 70 1015.7
20260902235518 30 203 4.8 8.0 0.00 0.00 0.00 69 1015.8
20260902234518 31 225 3.2 11.3 0.00 0.00 0.00 68 1015.8
20260902233558 31 225 4.8 9.7 0.00 0.00 0.00 66 1015.8
20260902232518 31 248 3.2 9.7 0.00 0.00 0.00 65 1015.7
20260902231519 32 270 4.8 17.7 0.00 0.00 0.00 64 1015.9
20260902230518 32 203 3.2 8.0 0.00 0.00 0.00 63 1015.8
20260902225519 32 270 4.8 11.3 0.00 0.00 0.00 62 1015.9
20260902224518 32 225 4.8 16.1 0.00 0.00 0.00 62 1015.9
20260902223518 33 270 6.4 14.5 0.00 0.00 0.00 61 1015.9
20260902222538 33 270 4.8 16.1 0.00 0.00 0.00 60 1016.0
20260902221538 33 248 8.0 17.7 0.00 0.00 0.00 59 1016.0
20260902220538 33 293 8.0 17.7 0.00 0.00 0.00 59 1016.1
20260902215518 33 270 9.7 22.5 0.00 0.00 0.00 57 1016.1
20260902214559 33 270 8.0 20.9 0.00 0.00 0.00 57 1016.2
20260902213538 33 270 8.0 22.5 0.00 0.00 0.00 56 1016.1
20260902212520 33 225 8.0 20.9 0.00 0.00 0.00 56 1016.1
20260902211518 34 248 9.7 25.7 0.00 0.00 0.00 54 1016.2
20260902210518 34 293 9.7 22.5 0.00 0.00 0.00 55 1016.2
20260902205538 34 293 8.0 19.3 0.00 0.00 0.00 54 1016.3
20260902204518 35 315 6.4 19.3 0.00 0.00 0.00 53 1016.5
20260902203518 34 293 9.7 20.9 0.00 0.00 0.00 51 1016.5
20260902202520 35 270 8.0 19.3 0.00 0.00 0.00 54 1016.7
20260902201518 35 270 8.0 27.4 0.00 0.00 0.00 51 1016.8
20260902200518 35 225 6.4 20.9 0.00 0.00 0.00 53 1016.8
20260902195520 34 248 9.7 24.1 0.00 0.00 0.00 53 1016.9
20260902194518 34 225 8.0 22.5 0.00 0.00 0.00 54 1017.0
20260902193538 34 270 8.0 19.3 0.00 0.00 0.00 54 1017.2
20260902192518 34 203 9.7 22.5 0.00 0.00 0.00 55 1017.1
20260902191520 33 225 8.0 12.9 0.00 0.00 0.00 57 1017.4
20260902190519 34 180 9.7 22.5 0.00 0.00 0.00 53 1017.4
20260902185518 34 270 3.2 14.5 0.00 0.00 0.00 56 1017.5
20260902184658 35 248 4.8 14.5 0.00 0.00 0.00 55 1017.6
20260902183520 35 248 4.8 12.9 0.00 0.00 0.00 60 1017.8
20260902182522 34 315 6.4 16.1 0.00 0.00 0.00 57 1017.8
20260902181518 33 293 6.4 16.1 0.00 0.00 0.00 59 1017.9
20260902180558 33 225 6.4 17.7 0.00 0.00 0.00 58 1018.0
20260902175520 33 248 6.4 19.3 0.00 0.00 0.00 59 1018.2
20260902174520 33 225 6.4 16.1 0.00 0.00 0.00 60 1018.2
20260902173519 33 270 8.0 22.5 0.00 0.00 0.00 60 1018.3
20260902172520 33 270 9.7 19.3 0.00 0.00 0.00 60 1018.4
20260902171520 33 270 4.8 16.1 0.00 0.00 0.00 61 1018.5
20260902170518 33 225 6.4 16.1 0.00 0.00 0.00 60 1018.6
20260902165520 32 203 6.4 14.5 0.00 0.00 0.00 63 1018.6
20260902164539 32 248 8.0 14.5 0.00 0.00 0.00 63 1018.8
20260902163519 32 270 6.4 14.5 0.00 0.00 0.00 65 1019.0
20260902162520 32 248 8.0 19.3 0.00 0.00 0.00 65 1019.1
20260902161519 32 293 6.4 19.3 0.00 0.00 0.00 64 1019.0
20260902160519 31 270 6.4 16.1 0.00 0.00 0.00 65 1019.0
20260902155518 31 270 6.4 12.9 0.00 0.00 0.00 66 1019.0
20260902154520 32 270 6.4 19.3 0.00 0.00 0.00 65 1018.9
20260902153520 32 315 6.4 12.9 0.00 0.00 0.00 66 1018.9
20260902152519 31 270 8.0 19.3 0.00 0.00 0.00 66 1018.7
20260902151520 31 270 8.0 17.7 0.00 0.00 0.00 68 1018.8
20260902150540 31 270 6.4 12.9 0.00 0.00 0.00 69 1018.6
20260902145519 30 270 8.0 19.3 0.00 0.00 0.00 71 1018.7
20260902144519 30 270 6.4 16.1 0.00 0.00 0.00 73 1018.7
20260902143519 29 248 6.4 19.3 0.00 0.03 0.00 72 1018.7
20260902142518 28 270 6.4 17.7 0.00 0.03 0.00 72 1018.6
20260902141518 29 270 8.0 17.7 0.00 0.03 0.00 72 1018.7
20260902140519 29 248 4.8 14.5 0.00 0.03 0.00 74 1018.6
20260902135538 28 248 4.8 19.3 0.00 0.05 0.00 75 1018.5
20260902134518 28 270 4.8 17.7 0.00 0.08 0.00 75 1018.5
20260902133518 28 248 4.8 14.5 0.00 0.08 0.00 77 1018.4
20260902132518 27 225 3.2 11.3 0.00 0.15 0.00 80 1018.4
20260902131518 27 248 4.8 11.3 0.00 0.15 0.00 81 1018.5
20260902130518 26 225 3.2 11.3 0.00 0.15 0.00 82 1018.5
20260902125539 26 248 3.2 8.0 0.00 0.15 0.00 83 1018.5
20260902124520 26 248 3.2 9.7 0.00 0.15 0.00 84 1018.5
20260902123518 26 225 1.6 8.0 0.00 0.15 0.00 84 1018.5
20260902122518 25 248 3.2 8.0 0.00 0.15 0.00 85 1018.5
20260902121519 25 225 1.6 6.4 0.00 0.15 0.00 86 1018.5
20260902120518 25 225 3.2 12.9 0.00 0.15 0.00 87 1018.5
20260902115520 24 225 1.6 6.4 0.00 0.15 0.00 88 1018.5
20260902114520 24 248 1.6 12.9 0.00 0.15 0.00 88 1018.5
20260902113518 23 270 1.6 3.2 0.00 0.15 0.00 88 1018.3
20260902112518 23 180 1.6 8.0 0.00 0.15 0.00 89 1018.3
20260902111558 23 225 1.6 6.4 0.00 0.15 0.00 89 1018.1
20260902110538 23 0.0 3.2 0.00 0.15 0.00 89 1018.1
20260902105520 23 248 1.6 3.2 0.00 0.15 0.00 89 1018.0
20260902104518 23 0.0 4.8 0.00 0.15 0.00 89 1017.9
20260902103520 23 248 1.6 4.8 0.00 0.15 0.00 89 1018.0
20260902102539 23 248 1.6 6.4 0.00 0.15 0.00 89 1017.9
20260902101519 24 225 1.6 4.8 0.00 0.15 0.00 89 1017.8
20260902100539 24 270 1.6 6.4 0.00 0.15 0.00 89 1017.8
20260902095528 24 315 1.6 4.8 0.00 0.15 0.00 89 1017.8
20260902094519 24 248 1.6 4.8 0.00 0.15 0.00 88 1017.6
20260902093518 24 270 1.6 4.8 0.00 0.15 0.00 88 1017.7
20260902092519 25 293 1.6 3.2 0.00 0.15 0.00 87 1017.8
20260902091519 25 293 1.6 6.4 0.00 0.15 0.00 87 1017.8
20260902090519 25 315 1.6 6.4 0.00 0.15 0.00 88 1017.8
20260902085519 25 315 3.2 6.4 0.00 0.15 0.00 88 1017.9
20260902084518 25 248 1.6 9.7 0.00 0.15 0.00 88 1017.8
20260902083519 25 270 1.6 4.8 0.00 0.15 0.00 88 1017.7
20260902082518 25 225 3.2 6.4 0.00 0.15 0.00 88 1017.7
20260902081519 25 248 3.2 6.4 0.00 0.15 0.00 88 1017.7
20260902080519 25 225 3.2 9.7 0.00 0.15 0.00 88 1017.6
20260902075518 25 203 1.6 6.4 0.00 0.15 0.00 88 1017.6
20260902074518 25 203 3.2 8.0 0.00 0.15 0.00 88 1017.7
20260902073518 25 225 1.6 6.4 0.00 0.15 0.00 88 1017.6
20260902072518 25 225 3.2 9.7 0.00 0.15 0.00 88 1017.5
20260902071518 25 225 3.2 9.7 0.00 0.15 0.00 88 1017.4
20260902070518 25 270 3.2 9.7 0.00 0.15 0.00 89 1017.5
20260902065518 25 180 3.2 11.3 0.00 0.15 0.00 89 1017.4
20260902064518 25 203 1.6 6.4 0.00 0.15 0.00 89 1017.4
20260902063538 25 203 3.2 8.0 0.00 0.15 0.00 89 1017.5
20260902062518 25 248 1.6 4.8 0.00 0.15 0.00 89 1017.5
20260902061518 25 248 1.6 6.4 0.00 0.15 0.00 89 1017.5
20260902060519 25 270 1.6 8.0 0.00 0.15 0.00 88 1017.6
20260902055518 25 0.0 3.2 0.00 0.15 0.00 88 1017.6
20260902054538 25 180 3.2 9.7 0.00 0.15 0.00 87 1017.5
20260902053519 26 0.0 3.2 0.00 0.15 0.00 87 1017.6
20260902052520 26 225 3.2 8.0 0.00 0.15 0.00 86 1017.5
20260902051518 26 248 3.2 8.0 0.00 0.15 0.00 86 1017.5
20260902050538 26 248 1.6 6.4 0.00 0.15 0.00 86 1017.4
20260902045518 26 225 1.6 8.0 0.00 0.15 0.00 86 1017.3
20260902044518 26 248 3.2 12.9 0.00 0.15 0.00 85 1017.2
20260902043518 26 270 4.8 11.3 0.00 0.15 0.00 85 1017.1
20260902042518 26 180 3.2 11.3 0.00 0.15 0.00 85 1017.0
20260902041520 26 293 3.2 6.4 0.00 0.15 0.00 85 1017.0
20260902040519 26 225 3.2 6.4 0.00 0.15 0.00 85 1017.1
20260902035519 26 203 1.6 6.4 0.00 0.15 0.15 85 1017.1
20260902034518 26 248 1.6 4.8 0.00 0.15 0.15 84 1017.0
20260902033518 27 203 1.6 6.4 0.00 0.15 0.15 84 1017.1
20260902032527 27 270 1.6 6.4 0.00 0.15 0.15 84 1017.1
20260902031518 27 203 3.2 8.0 0.00 0.15 0.15 83 1017.2
20260902030518 27 203 3.2 8.0 0.00 0.15 0.15 83 1017.3
20260902025518 27 203 3.2 9.7 0.00 0.15 0.15 84 1017.3
20260902024519 27 180 4.8 11.3 0.00 0.15 0.15 84 1017.2
20260902023518 27 180 3.2 9.7 0.00 0.15 0.15 84 1017.1
20260902022558 27 203 4.8 12.9 0.00 0.15 0.15 84 1017.0
20260902021520 27 180 3.2 9.7 0.00 0.15 0.15 84 1016.9
20260902020540 27 203 4.8 11.3 0.00 0.15 0.15 84 1016.9
20260902015520 27 180 3.2 14.5 0.00 0.15 0.15 84 1017.0
20260902014518 27 203 1.6 6.4 0.00 0.15 0.15 84 1017.0
20260902013519 27 180 1.6 8.0 0.00 0.15 0.15 84 1017.0
20260902012520 27 158 3.2 8.0 0.00 0.15 0.15 84 1017.0